星链-3806 (STARLINK-3806 )

导读

STARLINK-3806是美国SpaceX公司星链(Starlink)星座中的一颗低轨互联网卫星,于2022年4月29日由猎鹰9号火箭发射升空。它属于星链第一代卫星,运行在近地轨道,配备氪离子霍尔推进器与相控阵天线,具备自主轨道机动和避碰能力,为全球提供高速低延迟的卫星互联网服务,是星链全球组网的组成部分,推动了全球偏远地区互联网覆盖与卫星通信技术发展。

基本信息
目录编号:
52378
目录名称:
STARLINK-3806
国际标识:
2022-045AZ
轨道中心:
EARTH
卫星名称:
星链-3806
卫星全名:
星链-3806 (STARLINK-3806 )
卫星状态:
在轨 (已飞行1510 天)
发射日期:
2022-04-29 UTC
国别 :
美国 (US)
星等 :
--
轨道信息
数据来源 国际轨道数据 AOE轨道数据
星历时间 2026-06-17T10:20:49+0800
13小时前
查看轨道信息
2026-06-17T01:00:00+0800
22小时前
查看轨道信息
半长轴 6917.901km 6917.902km
偏心率 0.0001639 0.0001272
轨道倾角 53.161° 53.161°
近地点辐角 79.919° 87.667°
升交点赤经 102.767° 104.518°
平近点角 280.198° 315.819°
近地点 538.63km 538.885km
远地点 540.898km 540.645km
周期 95.438分钟 95.438分钟
每日圈数 15.088335 15.08833
详细信息
固有亮度:
5
最大亮度:
2.5
卫星平台:
Starlink v1.5
覆盖范围:
全球
运营商:
太空探索技术公司
运营商所在国:
美国
制造商(研发单位):
太空探索技术公司
制造商所在国:
美国
使用方式:
暂无
卫星简介
星链(Starlink)计划是由太空探索技术公司(SpaceX)提出的一个巨型低轨卫星互联网星座项目,计划在2019年至2024年间在太空搭建由约1.2万颗卫星组成的“星链”网络,其中1584颗将部署在地球上空550千米处的近地轨道,并从2020年开始工作。该卫星仍在工作。
2D轨道图
3D轨道图
轨道高度分析图
轨道倾角分析图
轨道综合分析图
查看轨道综合分析图